Location: Key Biscayne
(25.6930°N, 80.1630°W)
Time: 02:43:02
(UTC-05:00)

Tiangong 2 - Visible Passes

Search period start: 24 November 2017 00:00
Search period end: 04 December 2017 00:00
Orbit: 386 x 392 km, 42.8° (Epoch: 24 November)

Date Brightness Start Highest point End Pass type
(mag) Time Alt. Az. Time Alt. Az. Time Alt. Az.
24 Nov 4.4 05:02:27 10° SSE 05:03:27 11° SE 05:04:28 10° ESE visible
25 Nov 1.4 05:38:59 12° SW 05:41:48 65° SE 05:44:58 10° ENE visible
26 Nov 3.8 04:44:55 20° E 04:44:55 20° E 04:46:26 10° ENE visible
26 Nov 2.4 06:17:49 10° W 06:20:28 24° NNW 06:23:08 10° NNE visible
27 Nov 1.9 05:22:50 39° N 05:22:50 39° N 05:25:16 10° NE visible
28 Nov 3.2 06:00:26 13° NW 06:01:01 13° NNW 06:02:38 10° N visible
